This is the latest recevied weather packets stored in our database for station/object DB0MAK-13. If no packets are shown the sender has not sent any weather packets the latest 10 day(s).
| Time | Temp. | Humidity | Pressure | Rain* | Wind** | Luminosity | Snow |
|---|---|---|---|---|---|---|---|
| 1778410688 | 18.33° C | 51% | 1010.7 hPa | 0 mm | - | - | - |
| 1778410445 | 18.33° C | 50% | 1010.7 hPa | 0 mm | - | - | - |
| 1778410268 | 18.33° C | 52% | 1010.7 hPa | 0 mm | - | - | - |
| 1778409845 | 18.33° C | 55% | 1010.9 hPa | 0 mm | - | - | - |
| 1778409245 | 18.33° C | 56% | 1011.1 hPa | 0 mm | - | - | - |
| 1778409011 | 18.33° C | 55% | 1011.1 hPa | 0 mm | - | - | - |
| 1778408645 | 18.33° C | 56% | 1011.1 hPa | 0 mm | - | - | - |
| 1778408588 | 18.33° C | 57% | 1011.2 hPa | 0 mm | - | - | - |
| 1778408171 | 17.78° C | 60% | 1011.2 hPa | 0 mm | - | - | - |
| 1778408045 | 17.78° C | 60% | 1011.2 hPa | 0 mm | - | - | - |
| 1778407748 | 18.33° C | 62% | 1011.2 hPa | 0 mm | - | - | - |
| 1778407445 | 17.22° C | 63% | 1011.4 hPa | 0 mm | - | - | - |
| 1778406911 | 17.22° C | 64% | 1011.4 hPa | 0 mm | - | - | - |
| 1778406845 | 17.22° C | 65% | 1011.4 hPa | 0 mm | - | - | - |
| 1778406491 | 16.67° C | 65% | 1011.6 hPa | 0 mm | - | - | - |
| 1778406245 | 16.67° C | 64% | 1011.7 hPa | 0 mm | - | - | - |
| 1778406071 | 16.67° C | 66% | 1011.7 hPa | 0 mm | - | - | - |
| 1778405645 | 16.67° C | 66% | 1011.7 hPa | 0 mm | - | - | - |
| 1778405228 | 16.11° C | 67% | 1011.9 hPa | 0 mm | - | - | - |
| 1778405045 | 16.11° C | 68% | 1011.9 hPa | 0 mm | - | - | - |
| 1778404445 | 15.56° C | 68% | 1012 hPa | 0 mm | - | - | - |
| 1778404391 | 15.56° C | 69% | 1012.1 hPa | 0 mm | - | - | - |
| 1778403968 | 15.56° C | 71% | 1012.1 hPa | 0 mm | - | - | - |
| 1778403845 | 15° C | 69% | 1012.1 hPa | 0 mm | - | - | - |
| 1778403551 | 15° C | 70% | 1012.2 hPa | 0 mm | - | - | - |
* Rain latest hour (hover to see other rain measurements)
** Current wind speed in m/s (hover to see current wind gust speed)